TDRS 6

Last updated on Sat Apr 13 2024 01:02:32 GMT+0100 (British Summer Time)

1 22314U 93003B 24103.16923944 -.00000304 00000+0 00000+0 0 9991 2 22314 14.1621 2.8978 0008494 142.8005 70.2126 1.00269672114421
UTC large
Height (km)
Speed (km/s)
/
Latitude / Longitude
Inclination (degrees)
Orbital Period (minutes)
Azimuth
Elevation
Range (km)
Doppler Factor

Next 0 passes for location: London (51.5072 / 0.1276)

Sorry there are no passes over London.